Погода в Мензелинске

Погода в Мензелинске : погода сейчас, прогноз погоды и архив. Всё, что Вы хотите узнать о погоде в Мензелинске!

Поиск расширенной информации на нашем сайте:

Другие новости

Новости СМИ2

Главная страница сайта

Новости сайта

03.07.2017

Напоминаем, что на нашем специализированном сайте Метеоцентр.Азия вы можете получить высокодетализированные автоматические прогнозы погоды по пунктам России, СНГ и мира в авиационном формате (включающие направление и скорость ветра, видимость, явления погоды, количество и форму облачности, нижнюю и верхнюю границу облачности).

Рекомендуем: Tdci i масло mobil 5w30 mobil-1.com.ua.

Погода в Мензелинске - сегодня

Время (UTC), дата Ветер
(°,м/с) 
Видим.   Явления Облачность Т
(°С)
Тd
(°С)
f(%) Тe
(°С)
Pmin
(гПа)
dP
(гПа)
Po
(мм)
O2
(г/м3)
Тmin Tmax R s Состояние
почвы
09 23.05.18 270 (З) 4{10}  10 км    10/0 верхняя 
[Ci]
+25.4 +5.9 29 +25  1025.2  -1.1  759  279           
12 23.05.18 290 (З) 5{11}  10 км    10/0 средняя, верхняя 
[Ac cast|Ci fib]
+26 +3.8 24 +26  1023.7  -1.4  758  278           
18 23.05.18 240 (ЮЗ) 10 км    10/10 600 м 
[Sc]
+17.9 +5.4 44 +18  1021.4  -1.4  756  285           
21 23.05.18 250 (З) 10 км    10/4 600 м средняя, верхняя 
[Sc|Ac lent|Ci sp]
+15 +4.4 49 +15  1020.3  -1.2  755  288           
00 24.05.18 240 (ЮЗ) 10 км    10/5 600 м средняя 
[Sc|Ac lent]
+16.3 +5 47 +16  1019  -1.3  754  286           
06 24.05.18 270 (З) 10 км    4/0 средняя 
[Ac lent]
+22.1 +10.7 48 +24  1017.4  -0.2  753  279           
09 24.05.18 300 (СЗ) 6{12}  10 км    ясно 
+24.4 +8.4 36 +24  1016.3  -1  753  277           
12 24.05.18 310 (СЗ) 6{11}  10 км    ясно 
+23.3 +6.4 34 +23  1015.9  -0.5  752  278           
18 24.05.18 010 (С) 10 км    10/8 600 м средняя 
[Sc|Ac As]
+18.8 +7.6 48 +19  1015.9  0.6  752  282           
21 24.05.18 010 (С) 10 км    10/6 600 м средняя 
[Sc|Ac As]
+16.6 +9.3 62 +18  1014.6  -1.4  751  284           
00 25.05.18 020 (С) 10 км  в посл. час ливневой дождь  10/8 600 м кучево-дожд., средняя 
[Cb cap|Ac As]
+13.3 +10.9 85 +16  1014.8  751  287           
06 25.05.18 080 (В) 10 км  слаб. ливневой дождь  10/8 600 м кучево-дожд., средняя 
[Cb cap|Ac As]
+9 +3.1 66 +8  1016.9  1.2  752  293  +8.5         
09 25.05.18 030 (СВ) 10 км    10/5 600 м средняя 
[Sc|Ac As]
+12.2 -0.7 41 +12  1016.6  0.1  752  290           
12 25.05.18 030 (СВ) 4{10}  10 км    10/8 600 м кучево-дожд., средняя 
[Cb cap|Ac As]
+11.7 -0.3 43 +11  1018  1.3  753  291           
18 25.05.18 010 (С) 5{12}  10 км    8/3 600 м средняя 
[Sc|Ac As]
+8.4 -1 52 +7  1020.7  1.6  755  295           
00 26.05.18 020 (С) 6-12{14}  н/о    н/о 
+4.5 -0.9 68 +2  1023.4  1.6  757  300           
06 26.05.18 020 (С) 8-14{14}  10 км    3/3 1000 м 
[Cu med, cong]
+7.6 -7.6 33 +5  1026  759  298           
09 26.05.18 010 (С) 10-15{15}  10 км    ясно 
+11.2 -7.3 27 +9  1026.1  0.3  759  295           
12 26.05.18 020 (С) 8-13{15}  10 км    ясно 
+13.4 -7.2 23 +12  1025.8  -0.2  759  292           
18 26.05.18 310 (СЗ) 10 км    ясно 
+6.4 -3.4 49 +5  1026.7  0.7  760  299           
21 26.05.18 250 (З) 10 км    ясно 
+2.8 -3.1 65 +2  1026.9  760  303           
00 27.05.18 250 (З) 10 км    4/0 средняя 
[Ac trans]
+2.1 -2.7 70 +1  1026.1  -0.8  759  304           
06 27.05.18 260 (З) 7-12{12}  10 км    3/0 верхняя 
[Ci fib]
+17.6 +0.9 32 +17  1021.6  -2.4  756  286           
12 27.05.18 270 (З) 9-14{16}  10 км    10/3 600 м средняя, верхняя 
[Cu med, cong|Ac trans|Cs]
+22 +4.7 32 +22  1014.8  -3.3  751  279           
18 27.05.18 260 (З) 6{17}  10 км    10/8 600 м средняя 
[Sc|As trans]
+17.4 +3.3 39 +17  1010  -2.3  748  283           
Время (UTC), дата Ветер
(°,м/с) 
Видим.   Явления Облачность Т
(°С)
Тd
(°С)
f(%) Тe
(°С)
Pmin
(гПа)
dP
(гПа)
Po
(мм)
O2
(г/м3)
Тmin Tmax R s Состояние
почвы

Для получения пояснительной информации подведите курсор к названию столбца.

ПОГОДА в Мензелинске - архив

Всё, что Вы хотите узнать о погоде в Мензелинске - удобно и подробно!

Выберите нужную дату (начиная с 1 января 2015* года) и нажмите кнопку "Найти".
Будут отображены архивные сводки погоды по пункту Мензелинск, начиная с указанной даты.


Отображать данные в формате CSV (для использования в таблицах Excel)


Внимание! Наш архив погоды предназначен исключительно для личного некоммерческого использования в познавательных целях. Если Вам необходимы официальные справки о состоянии погоды (для производственных, юридических, коммерческих и т.п. целей), обращайтесь в органы Росгидромета.

*Примечание: данная дата относится к архиву по метеостанциям СССР (Россия, СНГ, Балтия).
Архив по метеостанциям Зарубежной Европы и Азии (кроме Китая) хранится 10 дней, по другим регионам земного шара (Китай, Африка, Америка, Австралия, Океания) - 1 день.

Мензелинск - район местоположения метеостанции


Название, широта, долгота, высота метеостанции:
Мензелинск 55.7°ш. 53.1°д. 112 м над ур. моря [Российская Федерация]

Дополнительная информация

В oтличие oт бoльшинства пoгoдных сайтoв мы публикуем пoдрoбную метеoинфoрмацию в детальнoм прoфессиoнальнoм фoрмате.

Характеристики температуры и влажнoсти вoздуха измеряются на высoте 2 м в тени вдали oт зданий и деревьев.
Скoрoсть ветра измеряется на высoте 10 м (на урoвне рoста челoвека скoрoсть ветра ниже в 1.5-2 раза). Если метеoстанция нахoдится в гoрoде или в лесу, тo скoрoсть ветра занижена на 2-4 м/с пo сравнению с oткрытым местoм. Скoрoсть ветра над акватoриями крупных рек и oзёр, а также на вершинах хoлмoв на 2-5 м/с выше, чем в oбычных услoвиях.
Атмoсфернoе давление в разных тoчках местнoсти мoжет значительнo oтличаться oт давления на метеoстанции, в зависимoсти oт услoвий рельефа (при пoдъёме на 10 м давление пoнижается примернo на 1 мм рт.ст.).